Regional Weather Roundup
Issued by NWS

Home | Current Version | Previous Version | Text Only | Print | Product List | Glossary Off
Versions: 1 2 3 4 5 6 7 8 9 10 11 12 13 14 15 16 17 18 19 20 21 22 23 24 25 26 27 28 29 30 31 32 33 34 35 36 37 38 39 40 41 42 43 44 45 46 47 48 49 50

000
ASUS43 KBIS 032120
RWRND

NORTH DAKOTA REGIONAL WEATHER ROUNDUP
NATIONAL WEATHER SERVICE BISMARCK ND
400 PM CDT SUN MAY 03 2015

NOTE: "FAIR" INDICATES FEW OR NO CLOUDS BELOW 12,000 FEET WITH NO
SIGNIFICANT WEATHER AND/OR OBSTRUCTIONS TO VISIBILITY.


NDZ001>003-009>011-017-032200-
NORTHWEST NORTH DAKOTA

CITY           SKY/WX    TMP DP  RH WIND       PRES   REMARKS
WILLISTON      SUNNY     64  20  18 NW13G25   30.02F
MINOT          SUNNY     63  24  22 NW17G30   29.98S
MINOT AFB      SUNNY     65  27  23 NW17G26   29.97S
$$

NDZ018>021-031>035-040>046-032200-
SOUTHWEST NORTH DAKOTA

CITY           SKY/WX    TMP DP  RH WIND       PRES   REMARKS
BISMARCK       MOSUNNY   65  23  20 NW8G21    30.01R
DICKINSON      SUNNY     63  25  23 NW8G21    30.01F
GARRISON         N/A     64  26  23 W17       29.99F
HETTINGER ARPT MOSUNNY   63  26  24 VRB3      30.03S
$$

NDZ004>008-012>016-024-026-027-054-032200-
NORTHEAST NORTH DAKOTA

CITY           SKY/WX    TMP DP  RH WIND       PRES   REMARKS
GRAND FORKS    MOSUNNY   69  25  19 NW16G26   29.90R
GRND FRKS AFB  SUNNY     68  25  19 N18       29.91R
DEVILS LAKE    SUNNY     64  25  22 NW13G28   29.94R
$$

NDZ022-023-025-028>030-036>039-047>053-032200-
SOUTHEAST NORTH DAKOTA

CITY           SKY/WX    TMP DP  RH WIND       PRES   REMARKS
FARGO          PTSUNNY   69  24  18 NW13      29.91F
JAMESTOWN      MOSUNNY   67  19  16 NW21G26   29.95R
$$




USA.gov is the U.S. government's official web portal to all federal, state and local government web resources and services.